sat.trackr.live / text

‹ back to catalog

APEX ARIES 1

NORAD 59129 · 2024-043AH

PAYLOAD ACTIVE UNKNOWN

§ Identity

Operator
Country
US
Launch date
2024-03-04
Launch site
AFWTR
Launch vehicle
Mass (kg)
RCS (m²)

External: N2YO · Heavens-Above · Gunter

§ Orbital elements

Epoch: 2026-09-22T09:10:44.655456Z

Period
92.30 min
Inclination
97.5582°
Eccentricity
0.0004637
Mean motion
15.60180909 rev/d
Perigee alt
384.0 km
Apogee alt
390.3 km
Semi-major
6,765.3 km
B*
2.4629e-4
RAAN
61.4606°
Arg perigee
192.8112°
Mean anomaly
167.3027°
Rev number
14,305

§ Raw data

APEX ARIES 11 59129U 24043AH  26265.38246129  .00019943  00000+0  24629-3 0  99962 59129  97.5582  61.4606 0004637 192.8112 167.3027 15.60180909143059

JSON: /api/v1/satellites/59129 · /tle

For live sub-satellite position, see the globe view (requires WebGL).

§ Visibility from observer

Set your observer location to see the next 7 days of passes ≥ 10°. The values pass through the URL so the page stays shareable.

No JS? Fill the form by hand. The geolocation button needs JavaScript.

§ Radio — SatNOGS DB

ModeDescriptionDownlinkUplink
FSK Mode U - FSK9k6 - Downlink 400.500 MHz
FM S-band telemetry 2.288 GHz

2 transmitters · refreshed weekly from db.satnogs.org